This is the latest recevied weather packets stored in our database for station/object 9W2SHB-13. If no packets are shown the sender has not sent any weather packets the latest 10 day(s).
| Time | Temp. | Humidity | Pressure | Rain* | Wind** | Luminosity | Snow |
|---|---|---|---|---|---|---|---|
| 1777645808 | 31.11° C | 64% | 1028.6 hPa | - | - | - | - |
| 1777644906 | 31.11° C | 64% | 1028.6 hPa | - | - | - | - |
| 1777644007 | 31.11° C | 64% | 1028.8 hPa | - | - | - | - |
| 1777643107 | 31.67° C | 64% | 1028.9 hPa | - | - | - | - |
| 1777642207 | 31.67° C | 65% | 1028.8 hPa | - | - | - | - |
| 1777641308 | 31.67° C | 65% | 1028.9 hPa | - | - | - | - |
| 1777640407 | 31.67° C | 64% | 1028.7 hPa | - | - | - | - |
| 1777639507 | 31.67° C | 64% | 1028.4 hPa | - | - | - | - |
| 1777638607 | 31.67° C | 64% | 1028.2 hPa | - | - | - | - |
| 1777637707 | 31.67° C | 62% | 1028.2 hPa | - | - | - | - |
| 1777636807 | 31.67° C | 62% | 1028.3 hPa | - | - | - | - |
| 1777635907 | 31.67° C | 61% | 1028.2 hPa | - | - | - | - |
| 1777635007 | 31.67° C | 61% | 1028.1 hPa | - | - | - | - |
| 1777634107 | 31.67° C | 61% | 1027.7 hPa | - | - | - | - |
| 1777633207 | 31.67° C | 62% | 1027.7 hPa | - | - | - | - |
| 1777632308 | 31.11° C | 65% | 1027.7 hPa | - | - | - | - |
| 1777631406 | 32.22° C | 62% | 1027.6 hPa | - | - | - | - |
| 1777630507 | 32.22° C | 61% | 1027.1 hPa | - | - | - | - |
| 1777629607 | 32.22° C | 61% | 1027 hPa | - | - | - | - |
| 1777628707 | 32.22° C | 61% | 1027.2 hPa | - | - | - | - |
| 1777627807 | 32.22° C | 60% | 1026.9 hPa | - | - | - | - |
| 1777626907 | 32.22° C | 59% | 1026.9 hPa | - | - | - | - |
| 1777626007 | 32.22° C | 59% | 1026.7 hPa | - | - | - | - |
| 1777625107 | 32.78° C | 59% | 1026.4 hPa | - | - | - | - |
| 1777624206 | 32.78° C | 59% | 1026.1 hPa | - | - | - | - |
* Rain since midnight (hover to see other rain measurements)
** Current wind speed in m/s (hover to see current wind gust speed)